Regional Weather Roundup
Issued by NWS

Home | Current Version | Previous Version | Graphics & Text | Print | Product List | Glossary On
Versions: 1 2 3 4 5 6 7 8 9 10 11 12 13 14 15 16 17 18 19 20 21 22 23 24 25 26 27 28 29 30 31 32 33 34 35 36 37 38 39 40 41 42 43 44 45 46 47 48 49 50
000
ASUS43 KMKX 011921
RWRWI

WISCONSIN REGIONAL WEATHER ROUNDUP
NATIONAL WEATHER SERVICE MILWAUKEE/SULLIVAN WI
200 PM CDT WED OCT 01 2014

NOTE: "FAIR" INDICATES FEW OR NO CLOUDS BELOW 12,000 FEET WITH NO
SIGNIFICANT WEATHER AND/OR OBSTRUCTIONS TO VISIBILITY.

WIZ001-002-006>008-014>016-023>028-012000-
NORTHWEST WISCONSIN

CITY           SKY/WX    TMP DP  RH WIND       PRES   REMARKS
SUPERIOR ARPT  RAIN      50  49  97 E3        29.82S
ASHLAND        RAIN      51  49  92 CALM      29.84F FOG
HAYWARD        RAIN      50  48  93 S6        29.82S FOG
SIREN          RAIN      50  49  96 SE6       29.81F
CUMBERLAND     HVY RAIN  46  46 100 S5        29.84R
RICE LAKE      HVY RAIN  50  48  93 SE6       29.84R
CHETEK         RAIN      50  49  98 E7        29.83F
LADYSMITH      LGT RAIN  52  50  95 SE9       29.85F
EAU CLAIRE     CLOUDY    53  50  89 SE13      29.82F
MENOMONIE      RAIN      51  51  99 SE6       29.83S
NEW RICHMOND   LGT RAIN  50  50  99 SE5       29.82F
OSCEOLA        HVY RAIN  51  51 100 SE5       29.85S
$$

WIZ003>005-009-010-017-018-012000-
NORTH CENTRAL WISCONSIN

CITY           SKY/WX    TMP DP  RH WIND       PRES   REMARKS
MANITOWISH WTR CLOUDY    53  46  78 SE8       29.87F
ARBOR VITAE    PTSUNNY   57  47  71 SE10      29.87F
WOODRUFF       PTSUNNY   57  47  71 SE10      29.87F
RHINELANDER    PTSUNNY   55  46  71 SE14G25   29.90F
EAGLE RIVER    MOSUNNY   57  45  64 SE8G16    29.89F
LAND O LAKES   MOSUNNY   58  46  64 S9        29.90F
PHILLIPS       LGT RAIN  51  49  93 SE8       29.84F
TOMAHAWK       CLOUDY    56  47  72 SE7       29.89F
MEDFORD        DRIZZLE   52  49  90 SE6       29.87F
MERRILL        CLOUDY    58  49  72 SE10      29.89F
$$

WIZ029-030-035-036-043>047-012000-
CENTRAL WISCONSIN

CITY           SKY/WX    TMP DP  RH WIND       PRES   REMARKS
WAUSAU         CLOUDY    60  49  66 SE13      29.88S
MOSINEE        PTSUNNY   59  52  77 SE9G18    29.90F
MARSHFIELD     LGT RAIN  59  49  69 SE13      29.88S
STEVENS POINT  CLOUDY    59  48  66 SE10G16   29.90F
WAUPACA        MOSUNNY   67  51  57 SE12G20   29.91F
WAUTOMA        NOT AVBL
WISC RAPIDS    CLOUDY    61  50  67 SE9       29.89F
CAMP DOUGLAS   CLOUDY    61  55  82 E10       29.86F
$$

WIZ011>013-019>022-031-037>040-048>050-012000-
NORTHEAST WISCONSIN

CITY           SKY/WX    TMP DP  RH WIND       PRES   REMARKS
ANTIGO         CLOUDY    56  49  80 SE14      29.92F
SHAWANO        PTSUNNY   64  52  65 SE9       29.93F
OCONTO         CLOUDY    56  54  92 SE10      29.96F
STURGEON BAY   NOT AVBL
GREEN BAY      CLOUDY    62  52  69 SE14      29.95F
MANITOWOC      NOT AVBL
APPLETON       PTSUNNY   63  52  67 S14       29.93F
CLINTONVILLE   PTSUNNY   63  52  67 SE10      29.91F
OSHKOSH        SUNNY     65  52  62 SE13G21   29.91F
$$

WIZ032>034-041-042-053>061-012000-
SOUTHWEST WISCONSIN

CITY           SKY/WX    TMP DP  RH WIND       PRES   REMARKS
LA CROSSE      LGT RAIN  61  54  77 S5        29.84F
SPARTA         CLOUDY    60  51  70 SE3       29.87R
VIROQUA        CLOUDY    61  52  70 SE9       29.86S
BOSCOBEL       CLOUDY    68  53  58 VRB3      29.85F
PRAIRIE DU CHI PTSUNNY   64  51  61 SE6       29.84F
PLATTEVILLE    CLOUDY    67  55  63 SE14      29.85F
$$

WIZ056-057-062-063-064-067-068-012000-
SOUTH CENTRAL WISCONSIN

CITY           SKY/WX    TMP DP  RH WIND       PRES   REMARKS
REEDSBURG      CLOUDY    63  53  68 SE7       29.87F
BARABOO/DELLS  CLOUDY    65  50  59 SE8       29.88F
LONE ROCK      CLOUDY    71  53  52 SE9       29.86F
MINERAL POINT  CLOUDY    68  54  60 SE13      29.86F
MADISON        CLOUDY    67  51  56 SE14      29.89F
MIDDLETON      CLOUDY    69  51  53 SE14      29.88F
WATERTOWN      MOSUNNY   67  52  58 SE10      29.90F
MONROE         CLOUDY    68  54  60 SE10G21   29.87F
JANESVILLE     MOSUNNY   70  52  52 SE12      29.89F
$$

WIZ051-052-058>065-066-070>072-012000-
SOUTHEAST WISCONSIN

CITY           SKY/WX    TMP DP  RH WIND       PRES   REMARKS
MILWAUKEE      PTSUNNY   61  51  70 SE20      29.97F
WAUKESHA       MOSUNNY   63  48  59 E12G23    29.95F
MILWAUKEE/TIMM SUNNY     63  48  59 SE12G18   29.97
RACINE         PTSUNNY   61  50  67 SE15G22   29.99F
BURLINGTON     MOSUNNY   66  51  58 SE9       29.94F
KENOSHA        SUNNY     63  52  67 SE14      29.97F
FOND DU LAC    SUNNY     65  51  60 SE15G22   29.91F
SHEBOYGAN      CLOUDY    59  51  75 SE12G22   29.97F
WEST BEND      SUNNY     63  48  59 SE14      29.95F
JUNEAU         MOSUNNY   65  51  60 SE15      29.91F
$$

LSZ147-162-012000-
LAKE SUPERIOR

STATION/POSITION TIME  TEMP    WIND        PRES    WAVE
                       AIR SEA DIR/SP/G            HT/PER
                 (UTC) (F)     (DEG/KT/KT) (MB)    (FT/S)
W MID LAKE BUOY  1850   50 50   50/  4/  4 1011.4F   1/ 3
DEVILS ISLAND    1900   49      90/  9/ 10 1010.9F
SAXON HARBOR     1800   55      CALM  /  3 1011.2F
$$

LMZ867-665-643>646-012000-
LAKE MICHIGAN

STATION/POSITION TIME  TEMP    WIND        PRES    WAVE
                       AIR SEA DIR/SP/G            HT/PER
                 (UTC) (F)     (DEG/KT/KT) (MB)    (FT/S)
CHAMBERS ISLAND  1800   58     170/  5/ 11 1015.9F
N MID LAKE BUOY  1850   55 58  180/ 10/ 12 1016.2F   1/ 3
NORTHPORT PIER   1800   56     150/  9/ 12 1016.3F
SISTER BAY       1757          170/ 14/ 21   N/A
KEWAUNEE LAKESHO 1900   55     150/ 15/ 18 1014.4F
SHEBOYGAN LAKESH 1900   56 55  140/ 18/ 21 1015.4F
PORT WASHINGTON  1800   60     160/ 11/ 14 1015.9F
ATWATER BUOY     1900   58     150/ 16/ 19 1015.7F
MILWAUKEE LAKESH 1900   58     150/ 16/ 18   N/A
S MID LAKE BUOY  1850   57 61  150/ 12/ 14 1016.0F   1/ 3
KENOSHA   LAKESH 1900   60     140/ 16/ 18 1014.6F
$$

TC  - TEMPERATURE IN CELSIUS
VSB - VISIBILITY IN STATUTE MILES
WCI - WIND CHILL INDEX
HX  - HEAT INDEX




USA.gov is the U.S. government's official web portal to all federal, state and local government web resources and services.